Wind_Speed
19 18 16 16 21 26 29 21 25 32 27 27 29 26 27 24 25 27 29 28 29 31 30 28 28 26 19 23 30 32 31 31 34 36 36 35 29 25 21 14 6 6 11 16 25 18 11 13 16
20 19 19 27 18 22 24 26 26 38 26 29 31 29 25 23 26 29 31 34 34 29 27 28 26 27 27 28 26 24 28 31 31 32 33 28 23 17 12 8 6 6 12 14 19 20 11 7 8
15 12 24 29 25 18 16 35 32 30 30 30 29 27 27 26 28 32 34 33 27 21 22 23 24 23 24 22 22 26 28 30 30 30 26 20 16 13 11 11 9 9 9 12 16 16 13 8 3
20 12 18 44 32 30 26 17 12 18 26 30 30 29 31 32 33 36 34 26 19 15 18 13 13 14 16 20 27 27 30 29 25 22 16 17 12 11 12 9 8 8 11 14 14 13 11 7 5
37 33 26 28 41 37 40 31 32 34 32 27 26 30 30 31 32 30 25 21 19 20 18 16 15 15 16 21 26 26 24 22 18 13 13 12 11 12 13 12 12 15 26 29 25 9 2 4 4
36 33 43 37 33 36 41 37 38 34 33 32 30 31 34 33 27 23 22 23 21 20 16 19 19 20 23 22 18 20 18 15 9 8 12 15 18 20 22 25 27 29 32 28 30 33 17 3 2
35 28 31 42 40 36 40 35 29 30 30 29 29 30 30 24 24 24 24 23 24 19 13 16 18 21 17 16 15 13 11 6 10 14 15 19 25 29 27 21 26 27 29 28 30 33 34 25 2
33 20 23 30 39 36 35 31 27 28 30 27 24 23 19 19 22 25 27 29 24 18 17 18 13 12 11 9 10 5 9 15 15 17 21 25 26 26 27 27 28 32 36 32 31 31 30 30 25
27 23 20 18 31 32 31 30 27 27 25 23 18 17 18 22 25 26 27 26 21 18 17 11 8 6 8 6 5 13 14 14 19 19 22 22 25 29 29 23 26 25 30 33 32 30 28 29 36
31 36 37 33 28 31 31 28 28 24 23 18 17 21 20 23 24 21 22 15 14 13 8 4 5 6 5 10 12 13 12 15 18 20 21 19 24 17 16 22 20 23 28 30 32 34 29 22 20
12 19 31 35 33 28 27 25 24 21 19 18 18 19 14 15 13 16 9 7 4 1 2 4 3 5 13 13 14 13 13 17 20 23 19 17 9 15 16 18 21 23 23 25 31 33 35 28 28
9 10 17 27 27 23 19 22 19 19 19 18 15 14 11 6 5 6 6 4 1 1 2 4 8 13 14 12 12 14 18 19 19 17 17 14 11 12 12 19 19 19 21 23 24 29 32 29 29
14 13 8 15 20 23 24 22 17 20 18 16 13 12 12 12 10 9 7 3 2 3 6 11 15 14 12 14 15 15 16 14 11 10 14 13 11 7 8 13 15 17 19 18 20 25 28 23 25
15 15 11 5 11 20 20 22 19 19 18 14 14 15 18 15 11 7 4 4 8 12 15 16 14 15 18 19 16 13 11 10 10 11 12 11 11 10 11 12 14 15 18 17 18 20 25 21 21
13 16 15 10 4 7 11 15 14 13 12 14 14 16 18 15 10 5 8 13 18 18 16 16 17 16 14 11 12 13 12 11 11 12 12 11 10 9 8 11 13 13 14 16 16 15 20 21 21
10 11 13 10 7 2 7 10 11 9 13 14 16 17 16 22 12 14 17 20 18 15 17 16 16 13 12 12 12 12 10 10 10 11 11 11 11 11 12 12 12 12 14 13 13 13 14 20 19
12 10 9 9 6 3 6 12 12 10 9 11 13 18 16 14 17 21 21 20 18 17 16 16 14 12 12 10 11 10 9 10 12 13 12 11 13 13 12 12 12 13 15 15 12 13 12 16 16
17 14 11 6 5 1 7 9 9 4 8 11 12 17 14 16 22 21 19 19 16 17 16 13 10 10 10 10 9 7 8 11 12 13 14 15 14 13 14 15 16 16 17 17 15 13 14 14 16
22 21 17 11 6 2 8 10 3 9 10 14 15 15 18 20 17 17 18 17 16 17 15 10 10 8 7 6 8 7 9 10 12 14 14 14 14 14 17 19 20 19 18 18 19 19 19 15 20
25 25 22 18 14 7 6 11 6 8 12 16 18 19 18 18 17 18 19 18 16 13 11 8 7 7 4 2 7 9 8 9 12 13 13 14 15 18 19 21 23 23 22 20 20 20 21 22 27
32 32 27 24 22 16 13 10 11 11 11 13 15 18 16 15 17 17 18 18 17 15 12 10 8 8 5 2 5 7 8 10 13 13 14 14 17 18 22 24 25 26 27 26 24 24 24 22 24
39 39 35 30 26 22 18 17 17 16 13 12 13 16 17 16 15 15 15 13 12 12 12 11 10 8 8 6 6 8 10 10 13 15 16 17 18 21 23 25 27 29 30 29 29 28 27 25 31
49 45 42 37 30 27 21 18 24 19 21 21 18 21 21 16 14 12 11 12 12 11 12 11 11 11 11 9 8 9 11 13 14 16 18 18 20 23 25 28 30 30 34 36 35 33 29 30 31
55 51 48 45 35 27 27 24 22 23 28 27 24 25 25 23 19 17 15 12 11 11 12 11 12 12 12 11 11 12 13 15 17 18 19 21 22 23 26 29 33 35 38 42 41 40 38 30 32
57 55 53 49 41 32 35 29 30 26 28 28 27 28 31 27 26 26 25 20 15 14 14 14 14 15 15 15 15 16 17 18 20 20 21 23 25 27 28 31 33 37 38 39 40 41 40 37 35
62 60 55 54 50 48 46 34 38 34 33 32 31 33 33 35 33 32 32 26 25 23 19 17 17 16 17 20 22 21 22 23 23 23 23 24 25 29 31 32 34 37 40 43 44 44 40 40 39
46 54 61 65 61 56 47 44 44 43 39 38 35 37 36 34 32 37 34 34 32 28 25 23 21 22 21 24 25 26 26 26 25 26 25 26 27 30 34 35 38 39 42 44 46 45 45 41 41
25 34 58 63 63 57 54 52 45 48 44 44 43 41 39 41 37 40 29 38 35 31 28 27 26 26 25 28 28 29 29 31 28 28 27 28 29 32 35 38 40 44 45 47 49 47 44 44 45
45 35 37 59 66 66 61 52 56 55 54 50 50 49 46 43 41 40 35 39 33 32 30 31 31 30 31 31 31 32 34 35 32 33 32 31 33 37 38 40 43 45 48 50 50 51 49 45 45
45 41 40 49 49 67 72 57 63 63 66 60 56 56 53 51 45 44 44 41 37 38 36 35 35 34 35 35 35 36 37 36 35 37 38 37 37 40 42 44 45 49 50 52 53 53 51 52 54
Wind_Direction
208 202 217 249 247 245 246 256 249 253 257 236 245 265 279 285 291 297 303 306 306 309 307 301 287 277 274 280 279 290 299 308 311 316 318 317 323 331 334 337 7 46 5 8 36 44 70 86 97
198 205 214 242 264 252 239 249 260 248 257 256 255 268 288 293 294 300 302 309 310 309 299 294 288 277 273 270 283 300 307 312 319 317 317 324 333 347 350 11 50 27 3 7 13 37 46 77 98
178 200 230 238 251 269 221 238 258 242 250 267 261 268 277 292 291 294 302 307 309 302 296 292 288 287 275 272 296 300 302 317 318 316 324 336 342 348 21 47 47 25 19 9 3 12 38 47 85
154 146 246 225 223 220 234 206 242 250 251 263 265 271 276 281 290 297 302 306 310 303 303 308 312 308 300 294 296 299 313 310 314 324 339 337 3 23 43 54 48 26 2 353 344 344 352 28 60
172 193 227 206 228 222 238 247 263 258 266 264 267 267 277 283 292 299 302 303 301 298 303 309 310 309 303 301 313 307 306 310 321 344 358 20 33 51 47 53 44 42 53 48 42 19 330 3 57
194 209 222 218 235 237 240 251 253 260 263 265 267 277 283 291 291 291 295 298 298 297 298 288 288 306 314 303 308 307 308 319 343 33 46 58 68 73 69 65 76 65 37 36 39 42 37 251 155
197 222 220 233 242 247 252 249 248 251 261 269 274 279 282 290 291 292 293 291 298 299 301 291 291 303 307 309 310 315 327 8 77 63 64 70 72 72 71 69 70 46 45 45 47 41 39 37 290
208 225 225 237 240 244 249 249 247 258 262 268 276 277 279 276 283 287 289 288 289 287 289 296 300 306 314 321 328 0 81 94 75 73 76 71 74 74 72 81 71 58 51 43 40 36 38 46 52
221 224 227 236 233 243 247 254 252 259 267 267 262 265 271 276 283 286 285 280 278 273 283 296 305 337 334 353 87 98 100 82 81 82 80 83 83 81 60 62 51 51 43 42 39 36 45 55 56
234 247 257 260 248 244 244 246 254 252 252 248 255 267 274 278 280 277 284 273 266 267 269 293 345 351 38 113 113 110 90 83 90 84 78 80 71 61 47 52 51 28 35 34 37 37 42 40 50
270 262 257 256 250 242 247 246 246 238 248 248 258 271 277 273 274 275 264 248 235 264 345 6 28 87 119 121 114 103 93 93 90 84 73 67 82 80 51 50 24 17 28 33 35 38 40 43 61
336 314 267 250 244 234 226 232 241 249 247 245 243 274 277 248 236 240 249 250 254 61 65 89 117 125 120 117 108 98 96 96 89 85 61 61 67 49 51 21 11 16 25 25 30 36 42 45 59
342 345 344 245 241 232 226 230 234 238 237 240 247 251 242 224 232 256 266 268 226 137 121 136 130 122 120 109 101 97 91 91 79 60 46 44 39 31 2 4 3 6 17 20 26 29 40 48 60
335 344 354 358 227 229 228 232 228 232 224 235 241 240 239 247 261 258 249 207 153 123 131 131 123 117 111 104 96 91 85 76 56 40 46 52 42 18 1 354 354 4 5 15 20 25 30 46 39
331 340 342 358 344 221 217 222 223 230 231 240 240 254 248 260 259 187 154 154 131 134 132 127 123 117 109 100 84 78 67 59 54 41 34 28 25 16 356 9 357 0 0 8 14 21 23 24 26
296 323 330 342 358 245 185 190 217 224 224 233 251 263 263 264 195 149 147 138 138 132 129 125 119 102 92 87 80 72 66 52 43 39 24 17 11 18 6 11 7 354 5 5 11 5 7 13 18
274 288 306 328 355 39 195 213 185 189 223 226 240 247 240 181 149 141 144 144 144 141 136 130 120 108 96 86 76 67 57 42 32 23 13 3 6 9 7 7 9 359 2 358 356 358 359 356 359
267 271 277 285 337 66 215 173 175 254 250 232 201 207 186 164 148 149 153 150 151 151 143 140 126 116 103 85 75 62 50 40 23 12 6 1 3 359 356 359 359 354 351 345 343 337 355 354 5
253 261 262 251 249 301 113 167 151 224 198 194 181 168 159 156 161 162 158 155 157 155 155 159 145 138 115 81 44 34 39 25 9 7 2 356 353 355 353 352 349 350 345 338 331 332 335 337 349
248 253 251 248 235 222 206 190 232 163 186 179 163 165 175 170 168 163 164 164 166 172 182 183 174 167 154 64 33 21 11 5 3 358 352 354 354 356 351 347 346 341 335 331 327 325 327 330 326
250 248 244 241 240 222 238 208 185 179 185 188 175 185 195 187 171 170 176 176 183 192 200 207 198 191 200 285 349 351 350 352 352 344 341 347 352 347 348 349 349 346 341 337 328 323 322 329 326
241 241 242 238 230 238 224 228 213 202 201 191 212 210 196 189 182 180 189 198 207 211 212 208 207 207 222 254 301 325 332 339 339 332 333 344 342 340 344 343 347 348 345 342 328 321 310 313 327
239 240 242 239 230 231 234 223 232 224 211 210 216 206 191 193 196 203 209 208 214 219 224 225 227 224 231 254 292 310 316 320 323 325 329 336 331 338 337 336 336 339 341 341 339 332 318 309 318
235 237 240 243 237 230 231 236 234 224 220 224 205 208 210 206 216 225 233 232 231 237 242 242 244 250 254 266 292 302 308 310 315 320 328 327 326 327 330 329 329 334 337 337 333 330 330 319 319
235 236 238 241 242 237 238 226 242 238 239 227 221 213 220 224 225 230 239 257 262 255 249 249 243 247 264 281 294 303 301 304 311 315 326 328 328 322 321 321 327 328 328 328 328 326 324 321 313
237 236 237 240 238 235 232 222 240 230 239 234 227 229 225 232 232 238 248 253 256 257 261 254 255 259 261 271 285 295 294 300 307 312 318 321 322 316 314 318 319 322 326 328 328 328 328 327 320
239 238 231 232 236 234 236 231 232 235 235 241 235 226 228 231 228 239 241 250 249 251 256 255 259 262 264 272 284 289 291 296 304 310 314 309 310 312 313 316 317 319 324 326 328 329 328 328 323
250 246 240 234 234 236 236 238 237 240 235 239 241 240 231 232 237 240 236 246 247 248 248 256 260 266 268 273 280 283 287 294 304 305 306 307 306 308 313 315 316 319 322 324 326 329 328 326 324
254 259 242 241 234 234 229 233 237 239 239 233 242 241 238 235 237 245 241 242 246 252 253 259 263 269 269 272 276 279 287 295 298 301 303 306 308 309 313 314 317 318 319 322 324 327 325 324 323
265 261 248 245 240 234 232 224 239 236 237 234 234 239 239 235 233 240 244 245 249 251 254 256 263 267 268 269 273 280 286 290 296 298 301 302 306 310 314 314 314 315 316 319 322 324 324 324 324
Height
11010 11013 11014 11014 11013 11016 11014 11014 11017 11014 11014 11014 11014 11014 11014 11013 11014 11014 11015 11015 11013 11010 11008 11007 11005 11002 11001 11000 10999 10996 10995 10993 10989 10985 10982 10977 10974 10970 10966 10963 10962 10961 10958 10956 10952 10949 10947 10945 10945
11010 11012 11010 11005 11008 11010 11012 11013 11011 11011 11010 11009 11010 11011 11011 11010 11010 11010 11010 11009 11007 11005 11003 11001 11000 10998 10997 10997 10996 10995 10993 10990 10987 10983 10980 10976 10972 10968 10965 10963 10962 10962 10960 10957 10955 10952 10949 10946 10946
11012 11012 11007 11007 11004 11005 11006 11007 11005 11005 11010 11005 11007 11009 11007 11006 11007 11007 11006 11004 11003 11001 10999 10997 10995 10995 10995 10995 10994 10993 10991 10988 10985 10981 10978 10974 10971 10967 10965 10965 10964 10963 10961 10959 10955 10952 10949 10947 10947
11012 11012 11006 10992 10997 10998 11000 11002 11004 11004 11004 11004 11003 11005 11005 11004 11004 11003 11002 11000 10999 10998 10997 10996 10995 10994 10994 10994 10993 10990 10988 10986 10983 10980 10976 10973 10970 10968 10966 10965 10964 10964 10962 10959 10955 10951 10949 10947 10947
10998 10982 10997 10991 10991 10994 10999 11000 11004 11001 11000 11003 11002 11003 11002 11002 11001 11000 10998 10997 10997 10997 10995 10994 10993 10993 10992 10991 10989 10988 10986 10984 10982 10979 10975 10972 10970 10969 10968 10967 10967 10966 10963 10959 10953 10949 10948 10946 10946
10995 10990 10986 10986 10987 10993 10997 10997 11001 10999 10997 11000 11000 10999 10998 10998 10998 10997 10996 10995 10996 10995 10994 10992 10992 10991 10989 10989 10987 10986 10984 10983 10980 10978 10976 10974 10971 10970 10970 10970 10971 10967 10965 10960 10957 10950 10946 10944 10945
10988 10986 10986 10988 10986 10990 10989 10992 10995 10998 10993 10997 10996 10995 10995 10994 10994 10994 10992 10993 10993 10992 10991 10990 10990 10989 10988 10987 10986 10985 10983 10981 10980 10980 10978 10976 10975 10974 10972 10971 10972 10970 10967 10963 10959 10955 10949 10944 10943
10983 10984 10984 10985 10985 10987 10987 10989 10993 10993 10989 10992 10992 10991 10992 10991 10992 10992 10991 10991 10991 10990 10989 10988 10988 10988 10988 10986 10985 10984 10983 10982 10982 10981 10980 10979 10978 10975 10975 10974 10973 10971 10968 10966 10962 10958 10953 10948 10944
10984 10983 10981 10982 10984 10985 10984 10982 10987 10988 10988 10987 10987 10986 10989 10989 10990 10988 10988 10988 10988 10987 10987 10987 10987 10987 10987 10986 10986 10985 10985 10985 10984 10983 10982 10980 10978 10977 10976 10976 10974 10973 10970 10969 10966 10961 10957 10953 10949
10983 10982 10980 10978 10980 10981 10978 10980 10979 10984 10984 10985 10985 10984 10986 10985 10986 10986 10985 10986 10985 10985 10986 10987 10987 10987 10987 10987 10987 10987 10987 10987 10986 10985 10984 10982 10979 10978 10977 10978 10976 10976 10973 10971 10969 10964 10960 10955 10953
10980 10978 10975 10971 10973 10973 10973 10975 10975 10980 10980 10983 10983 10982 10984 10984 10983 10984 10984 10985 10985 10985 10986 10986 10987 10988 10989 10989 10988 10988 10988 10989 10989 10988 10986 10982 10982 10982 10979 10976 10978 10977 10974 10973 10972 10967 10962 10958 10955
10975 10973 10969 10966 10966 10968 10970 10972 10972 10975 10978 10981 10984 10979 10980 10981 10982 10984 10984 10985 10984 10985 10985 10986 10988 10989 10990 10991 10990 10990 10990 10990 10990 10989 10988 10986 10986 10985 10982 10978 10980 10979 10975 10974 10974 10971 10965 10961 10957
10972 10969 10965 10962 10962 10964 10967 10969 10971 10974 10975 10976 10979 10981 10978 10980 10980 10982 10983 10983 10983 10984 10985 10988 10989 10990 10992 10992 10992 10992 10992 10992 10991 10992 10990 10987 10985 10986 10984 10984 10983 10979 10976 10977 10976 10973 10969 10966 10961
10969 10968 10964 10961 10961 10961 10963 10967 10971 10971 10975 10974 10976 10978 10978 10978 10979 10980 10980 10983 10983 10984 10987 10989 10992 10993 10994 10994 10995 10994 10993 10994 10993 10992 10993 10993 10989 10986 10984 10984 10982 10978 10979 10978 10974 10972 10970 10968 10963
10969 10966 10963 10961 10960 10961 10963 10967 10966 10971 10972 10974 10976 10976 10977 10977 10977 10977 10980 10983 10984 10987 10989 10992 10994 10995 10996 10996 10996 10995 10995 10995 10994 10992 10991 10991 10990 10989 10986 10983 10980 10978 10977 10975 10973 10972 10970 10967 10964
10969 10968 10966 10963 10961 10960 10962 10963 10964 10968 10969 10972 10973 10974 10974 10975 10975 10976 10979 10983 10986 10989 10991 10993 10995 10997 10998 10998 10998 10998 10998 10996 10995 10993 10991 10989 10988 10986 10983 10982 10979 10976 10974 10972 10970 10968 10967 10966 10963
10968 10966 10965 10964 10962 10960 10961 10959 10962 10965 10968 10969 10970 10972 10972 10973 10974 10975 10979 10983 10986 10989 10992 10995 10997 10998 10999 11000 11000 11000 11000 10998 10995 10993 10991 10989 10986 10984 10982 10980 10978 10974 10972 10970 10969 10968 10966 10963 10960
10964 10964 10963 10964 10963 10961 10960 10960 10962 10963 10966 10968 10967 10972 10973 10974 10975 10977 10980 10983 10986 10989 10992 10995 10997 10999 11000 11001 11001 11001 11000 10999 10997 10994 10991 10988 10986 10984 10982 10980 10978 10976 10973 10971 10969 10968 10965 10962 10959
10959 10960 10961 10962 10963 10962 10961 10960 10961 10962 10962 10965 10967 10971 10974 10976 10977 10979 10980 10983 10987 10989 10992 10995 10997 10999 11001 11001 11001 11001 11000 10998 10996 10994 10991 10989 10987 10985 10983 10981 10979 10976 10973 10971 10967 10966 10964 10962 10960
10954 10955 10956 10958 10960 10963 10962 10961 10962 10961 10963 10965 10966 10971 10976 10975 10978 10979 10981 10984 10987 10989 10991 10994 10996 10998 11000 11000 11001 11000 10999 10997 10996 10993 10990 10988 10986 10986 10983 10980 10977 10974 10970 10967 10965 10962 10961 10961 10958
10947 10947 10950 10953 10954 10959 10960 10960 10960 10961 10962 10965 10966 10970 10975 10975 10976 10979 10982 10984 10986 10988 10990 10992 10995 10997 10998 10999 10999 10999 10998 10996 10994 10992 10989 10988 10987 10984 10982 10979 10975 10972 10969 10967 10965 10961 10959 10958 10955
10938 10936 10940 10944 10950 10954 10959 10960 10958 10959 10961 10964 10969 10971 10974 10976 10977 10978 10981 10984 10986 10988 10990 10991 10993 10995 10996 10997 10997 10997 10996 10994 10991 10989 10987 10986 10985 10983 10981 10977 10974 10971 10968 10965 10962 10961 10957 10954 10952
10923 10928 10931 10934 10943 10949 10954 10959 10957 10960 10961 10962 10966 10970 10971 10974 10976 10978 10980 10982 10984 10986 10989 10990 10991 10992 10994 10994 10995 10994 10993 10991 10989 10986 10985 10983 10981 10979 10977 10973 10971 10969 10965 10962 10960 10956 10953 10949 10946
10905 10918 10922 10926 10935 10944 10948 10952 10955 10957 10958 10960 10960 10967 10969 10970 10973 10975 10978 10979 10981 10983 10986 10988 10990 10992 10992 10992 10992 10991 10990 10986 10985 10984 10984 10982 10979 10977 10974 10970 10967 10963 10960 10956 10952 10949 10946 10943 10939
10896 10905 10914 10919 10929 10939 10938 10946 10946 10950 10951 10955 10959 10960 10964 10967 10968 10971 10973 10976 10978 10979 10981 10984 10987 10988 10990 10989 10988 10988 10985 10982 10980 10980 10979 10977 10973 10970 10969 10966 10962 10958 10956 10952 10948 10945 10941 10936 10932
10883 10889 10906 10908 10914 10920 10923 10936 10937 10941 10944 10949 10953 10953 10958 10960 10963 10966 10968 10973 10973 10974 10976 10980 10982 10984 10984 10985 10984 10983 10980 10977 10976 10975 10974 10973 10972 10967 10964 10962 10959 10956 10950 10946 10942 10937 10934 10929 10925
10872 10880 10880 10889 10897 10907 10919 10924 10926 10930 10937 10941 10945 10950 10951 10951 10956 10957 10962 10968 10968 10969 10970 10973 10977 10978 10978 10978 10979 10977 10974 10970 10971 10971 10970 10968 10966 10963 10960 10957 10953 10950 10945 10941 10935 10931 10925 10921 10917
10863 10863 10869 10880 10890 10901 10907 10913 10924 10921 10926 10929 10932 10937 10943 10945 10948 10950 10952 10960 10961 10964 10965 10967 10970 10973 10972 10972 10972 10970 10968 10965 10966 10966 10965 10963 10961 10958 10955 10951 10948 10941 10938 10934 10928 10923 10919 10911 10905
10849 10855 10857 10858 10873 10883 10892 10909 10906 10907 10910 10917 10920 10923 10931 10937 10941 10942 10947 10953 10954 10958 10959 10961 10964 10965 10965 10964 10963 10961 10960 10959 10960 10958 10958 10957 10953 10950 10949 10945 10939 10936 10931 10926 10921 10914 10909 10906 10901
10839 10847 10845 10854 10856 10863 10870 10899 10891 10892 10888 10898 10907 10911 10916 10925 10934 10938 10940 10944 10946 10948 10951 10953 10956 10957 10957 10955 10953 10953 10952 10952 10952 10951 10950 10949 10947 10944 10940 10937 10934 10928 10923 10918 10913 10908 10900 10893 10888